This is the latest recevied weather packets stored in our database for station/object KK4MOR. If no packets are shown the sender has not sent any weather packets the latest 10 day(s).
| Time | Temp. | Humidity | Pressure | Rain* | Wind** | Luminosity | Snow |
|---|---|---|---|---|---|---|---|
| 1777775431 | 7.78° C | 87% | 1016.8 hPa | 0 mm | - | - | - |
| 1777774527 | 8.89° C | 85% | 1016.7 hPa | 0 mm | - | - | - |
| 1777773623 | 9.44° C | 83% | 1016.4 hPa | 0 mm | - | - | - |
| 1777772721 | 9.44° C | 82% | 1016.2 hPa | 0 mm | - | - | - |
| 1777771820 | 10° C | 81% | 1016 hPa | 0 mm | - | - | - |
| 1777770919 | 10° C | 80% | 1015.9 hPa | 0 mm | - | - | - |
| 1777770017 | 10.56° C | 78% | 1015.7 hPa | 0 mm | - | - | - |
| 1777769117 | 10.56° C | 77% | 1015.7 hPa | 0 mm | - | - | - |
| 1777768214 | 11.11° C | 74% | 1015.3 hPa | 0 mm | - | - | - |
| 1777767315 | 11.67° C | 71% | 1015.2 hPa | 0 mm | - | - | - |
| 1777766412 | 12.22° C | 68% | 1014.7 hPa | 0 mm | - | - | - |
| 1777765512 | 12.78° C | 65% | 1014.5 hPa | 0 mm | - | - | - |
| 1777764612 | 12.78° C | 64% | 1014.5 hPa | 0 mm | - | - | - |
| 1777763716 | 12.78° C | 64% | 1014.4 hPa | 0 mm | - | - | - |
| 1777762810 | 14.44° C | 56% | 1014.3 hPa | 0 mm | - | - | - |
| 1777761911 | 15.56° C | 48% | 1013.9 hPa | 0 mm | - | - | - |
| 1777761010 | 15.56° C | 47% | 1013.7 hPa | 0 mm | - | - | - |
| 1777760109 | 16.11° C | 46% | 1013.5 hPa | 0 mm | - | - | - |
| 1777759210 | 16.11° C | 45% | 1013.3 hPa | 0 mm | - | - | - |
| 1777758309 | 17.22° C | 44% | 1013.1 hPa | 0 mm | - | - | - |
| 1777757407 | 17.22° C | 41% | 1013 hPa | 0 mm | - | - | - |
| 1777756509 | 16.11° C | 43% | 1013.1 hPa | 0 mm | - | - | - |
| 1777755604 | 17.22° C | 40% | 1013.2 hPa | 0 mm | - | - | - |
| 1777754705 | 17.22° C | 41% | 1013.2 hPa | 0 mm | - | - | - |
| 1777753804 | 17.22° C | 41% | 1013.3 hPa | 0 mm | - | - | - |
* Rain latest hour (hover to see other rain measurements)
** Current wind speed in m/s (hover to see current wind gust speed)